Location: Berduj
(43.0019°N, 22.3781°E)
Time: 08:10:49
(UTC+00:00)

Cosmos 1833 Rocket - Pass Details

Date: 19 October 2019
Orbit: 833 x 839 km, 71.0° (Epoch: 14 November)

Event Time Altitude Azimuth Distance (km) Brightness Sun altitude
Rises 18:01:47 0° 328° (NNW) 3,391 6.4 -26.2°
Reaches altitude 10° 18:04:21 10° 321° (NW) 2,453 5.7 -26.7°
Maximum altitude 18:09:33 40° 254° (WSW) 1,214 3.9 -27.6°
Enters shadow 18:13:45 15° 191° (S) 2,102 4.7 -28.3°
